Flag for Brazil Weather past 2 weeks in Barra do Garças, Mato Grosso, Brazil

Now
66 °F

Clear.


Feels Like: 66 °F
Forecast: 66 / 89 °F
Wind: 2 mph from Northwest

Location: Barra Do Garcas Airport

Current Time: May 28, 2015 at 7:23:40 AM

Latest Report: May 28, 2015 at 6:00 AM


Visibility: 10 mi

Pressure: 30.01 "Hg

Humidity: 100%

Dew point: 66 °F

Location of Barra do GarçasLocation

Historic Weather in Barra do Garças — Graph

°F

Barra do Garças temperature yesterday

Maximum temperature yesterday: 91 °F (at 3:00 PM)
Minimum temperature yesterday: 66 °F (at 8:00 AM)
Average temperature yesterday: 83 °F

Past Weeks' High & Low Weather Summary

 TemperatureHumidityPressure
High91 °F (May 25, 3:00 PM)100% (May 14, 8:00 AM)30.15 "Hg (May 14, 8:00 AM)
Low64 °F (May 14, 8:00 AM)38% (May 27, 3:00 PM)29.95 "Hg (May 14, 3:00 PM)
Average81 °F68%30.05 "Hg
* Reported May 13 8:00 AM — May 28 6:00 AM, Barra do Garças, Weather by CustomWeather, © 2015

Note: Actual official high and low records may vary slightly from our data, if they occured in-between our weather recording intervals... More about our weather records

Advertising

Barra do Garças weather history for previous 24 hours

 ConditionsComfort  
Time TempWeatherWind HumidityBarometerVisibility
6:00 AM
Thu, May 28
66 °FClear.2 mph100%30.01 "Hg10 mi
5:00 AM68 °FClear.2 mph94%30.01 "Hg10 mi
4:00 AM68 °FClear.5 mph100%30.01 "Hg10 mi
3:00 AM68 °FClear.5 mph94%30.01 "Hg10 mi
2:00 AM68 °FClear.5 mph100%30.01 "Hg10 mi
7:00 PM
Wed, May 27
79 °FPassing clouds.5 mph74%29.98 "HgN/A
6:00 PM82 °FPassing clouds.5 mph62%29.95 "HgN/A
5:00 PM88 °FPassing clouds.7 mph46%29.95 "HgN/A
4:00 PM90 °FPassing clouds.9 mph41%29.95 "HgN/A
3:00 PM91 °FPassing clouds.7 mph38%29.95 "HgN/A
2:00 PM90 °FPassing clouds.5 mph46%29.98 "HgN/A
1:00 PM88 °FPassing clouds.9 mph52%30.01 "HgN/A
12:00 PM88 °FPassing clouds.5 mph49%30.04 "HgN/A
11:00 AM84 °FSunny.5 mph51%30.07 "Hg10 mi
10:00 AM81 °FSunny.No wind62%30.07 "Hg10 mi
9:00 AM75 °FSunny.No wind74%30.04 "Hg10 mi
8:00 AM66 °FSunny.No wind88%30.01 "Hg10 mi
Weather by CustomWeather, © 2015

See weather overviewHow to use our weather pages